Find Kosmos-797

NORAD ID: 8613 Int'l Des: 1976-008 Owner: GUKOSR Country: SU operational
LEOCIRCULAR

Current View

Loading 3D Globe...

About Kosmos-797

Kosmos-797 (NORAD 8613) is a satellite by GUKOSR of SU. It operates in LEO, CIRCULAR orbit

Upcoming Passes

Passes for default location (London). Set your location on the main map for personalized predictions.

Altitude History

Loading altitude history...

Two-Line Element Set

1 08613U 76008G 26195.61850729 -.00000005 00000-0 76114-4 0 9999
2 08613 74.0550 29.0337 0032099 325.5579 92.1367 12.40689087285417
Epoch: Jul 14, 2026 • Age: 8 hours

Current Status

Altitude 1535.0 km
Apogee / Perigee N/A
Velocity 7.10 km/s
Sub-Earth Point 65.78°N, 106.28°W
Type other

Most Searched